[[{"header":{"parameterUnit":"m.s-1","parameterCategory":1,"la1":30.2991,"la2":30.254,"lo1":-89.0895,"lo2":-89.0444,"dy":0.0017,"dx":0.0017,"nx":28,"ny":28,"refTime":"2024-02-11T03:00:00:Z","depth":0,"parameterNumber":2,"parameterNumberName":"U-component_of_WINDS"},"data":[0,0,0,0,0,0,0,0,0,0,0,0,0,0,0,0,0,0,0,0,0,0,0,0,0,0,0,0,0,0,0,0,0,0,0,0,0,0,0,0,0,0,0,0,0,0,0,0,0,0,0,0,0,0,0,0,0,0,0.0331,0.033,0,0.0212,0.021,0.0209,0.015,0.015,0.015,0.015,0.0028,0.0024,0.0021,0,0,0,0,0,0,0,0,0,0,0,0,0,0.0509,0.0506,0.0331,0.033,0.0328,0.0212,0.021,0.0209,0.015,0.015,0.015,0.015,0.0029,0.0025,0.0021,0,0,0,0,0,0,0,0,0,0,0,0,0,0.0415,0.0505,0.0331,0.0285,0.028,0.0212,0.021,0.0208,0.015,0.015,0.015,0.015,0.003,0.0025,0.002,-0.001,0,0,0.0005,0.0003,0,0,0,0,0,0,0,0,0.042,0.0408,0.0293,0.0288,0.0282,0.0196,0.0228,0.0135,0.015,0.0199,0.015,0.015,0.0084,0.0074,0.0052,-0.0016,-0.0021,0.0005,0.0002,-0.0,-0.0001,0,0,0,0,0,0,0,0.0427,0.0413,0.0284,0.0292,0.0285,0.027,0.0257,0.021,0.0143,0.0195,0.019,0.0177,0.008,0.0057,0.0049,-0.0023,0.0005,0.0001,-0.0002,-0.0004,-0.012,-0.012,0,0,0,0,0,0,0.0441,0.0419,0.0288,0.028,0.0353,0.0267,0.0252,0.0223,0.0143,0.0131,0.0177,0.0175,0.0065,0.0054,0.0044,0.0004,-0.0,-0.0005,-0.0007,-0.012,-0.012,-0.012,0,0,0,0,0,0,0.0445,0.043,0.0292,0.0348,0.033,0.0264,0.0232,0.0221,0.0197,0.013,0.0117,0.0165,0.0065,0.0051,0.0004,-0.0001,-0.0007,-0.0011,-0.012,-0.012,-0.012,-0.0077,0,0,0,0,0,0,0.045,0.0432,0.0419,0.0349,0.0327,0.0254,0.0232,0.0219,0.0189,0.0185,0.0115,0.0104,0.0064,0.0012,-0.0001,-0.0008,-0.0015,-0.0119,-0.012,-0.012,-0.0078,-0.0076,-0.0074,0,0,0,0,0,0.0457,0.0436,0.0419,0.0403,0.031,0.0254,0.0242,0.0196,0.0189,0.0176,0.0133,0.0106,0.0001,0.0008,-0.0007,-0.0016,-0.0119,-0.012,-0.012,-0.008,-0.0076,-0.0074,0,0,0,0,0,0,0.0507,0.0425,0.0406,0.0361,0.0315,0.0244,0.0226,0.0201,0.0156,0.0153,0.0099,0.0083,0.0042,0.0008,0.0016,-0.0049,-0.0061,-0.0065,-0.0026,-0.0023,-0.0021,-0.0012,-0.0019,0,0,0,0,0,0.0513,0.0474,0.0405,0.0372,0.035,0.0293,0.0267,0.0236,0.0186,0.0166,0.0119,0.0072,0.0028,0.0001,-0.0043,-0.0083,-0.0099,-0.0097,-0.0094,-0.0092,-0.0094,-0.0117,-0.0117,-0.0121,-0.0121,-0.0121,0,0,0.0524,0.0475,0.0454,0.0381,0.0342,0.0303,0.0277,0.0237,0.0208,0.0159,0.0113,0.0077,0.0021,-0.0022,-0.0044,-0.0052,-0.0096,-0.0092,-0.009,-0.0094,-0.0117,-0.0117,-0.0117,-0.0121,-0.0121,-0.0121,0,0,0.0525,0.0484,0.0452,0.0414,0.0355,0.0317,0.031,0.0243,0.0218,0.017,0.0134,0.0099,0.0025,-0.0014,-0.0043,-0.0054,-0.008,-0.0067,-0.0055,-0.0077,-0.0076,-0.0076,-0.008,-0.0081,-0.0069,-0.0069,-0.0069,0,0.0546,0.0487,0.0439,0.0402,0.0371,0.0327,0.0295,0.026,0.019,0.017,0.0162,0.0069,0.0028,-0.0025,-0.0027,-0.0049,-0.0059,-0.006,-0.0073,-0.0073,-0.0074,-0.0078,-0.0079,-0.0067,-0.0067,-0.0067,-0.0067,0,0.0517,0.0476,0.0458,0.0392,0.0359,0.0325,0.0272,0.0245,0.0218,0.0181,0.0133,0.0083,0.0028,0.0014,-0.0014,-0.0042,-0.0046,-0.0062,-0.0076,-0.007,-0.0075,-0.0077,-0.0064,-0.0065,-0.0065,-0.0066,0,0,0.0544,0.0454,0.0448,0.0418,0.035,0.0318,0.0282,0.023,0.0208,0.0161,0.013,0.0069,0.0054,0.0021,-0.0012,-0.0031,-0.0036,-0.0045,-0.0047,-0.0041,-0.0069,-0.0056,-0.0058,-0.0053,-0.0053,-0.0054,-0.0064,0,0.0536,0.0469,0.0426,0.0377,0.0339,0.0297,0.0266,0.0222,0.0187,0.015,0.0111,0.0069,0.0052,0.0032,0.0011,-0.0031,-0.0042,-0.003,-0.0083,-0.0084,-0.0067,-0.006,-0.0047,-0.0055,-0.0067,-0.0067,-0.0067,0,0.0517,0.0472,0.042,0.0358,0.034,0.0313,0.0262,0.0227,0.0176,0.0152,0.0116,0.0084,0.0045,0.0035,-0.0019,-0.001,-0.0034,-0.0058,-0.0059,-0.0066,-0.0075,-0.0067,-0.0059,-0.0059,-0.0071,-0.0071,-0.007,0,0.0542,0.0469,0.0429,0.0404,0.0331,0.0313,0.0281,0.0231,0.0202,0.0158,0.0139,0.009,0.0063,0.0027,-0.0018,-0.002,-0.0067,-0.0081,-0.0088,-0.0087,-0.0097,-0.0096,-0.0092,-0.0111,-0.0111,-0.0111,-0.0111,0,0.0537,0.0507,0.0439,0.0414,0.0379,0.033,0.0297,0.0262,0.0218,0.0185,0.0146,0.0117,0.006,0.0023,-0.0011,-0.0051,-0.0063,-0.0083,-0.0092,-0.008,-0.0077,-0.0096,-0.0097,-0.0112,-0.0112,-0.0112,-0.0112,0,0.056,0.0513,0.0466,0.0401,0.0384,0.0361,0.0305,0.028,0.0244,0.0203,0.0191,0.0134,0.0089,0.0042,-0.0019,-0.0043,-0.0081,-0.0093,-0.0063,-0.0068,-0.0073,-0.0072,-0.0082,-0.0086,-0.0102,-0.0102,-0.0102,0,0.0559,0.0535,0.0468,0.0444,0.0413,0.0375,0.0346,0.0298,0.0269,0.021,0.0192,0.0145,0.0104,0.0035,-0.0012,-0.0059,-0.0073,-0.0073,-0.008,-0.0067,-0.0073,-0.0071,-0.0073,-0.0071,-0.007,-0.007,-0.007,0,0.0563,0.0542,0.0502,0.0455,0.0421,0.0381,0.034,0.0322,0.0266,0.0236,0.019,0.0159,0.0097,0.0051,-0.0001,-0.0033,-0.0061,-0.0067,-0.0071,-0.0059,-0.0041,-0.005,-0.0057,-0.0067,-0.0067,-0.0067,-0.0067,-0.0068,0.0574,0.0551,0.0501,0.0458,0.0422,0.0384,0.0357,0.0318,0.0279,0.0226,0.02,0.0154,0.0105,0.0033,0.0002,-0.0035,-0.0043,-0.0049,-0.0051,-0.0051,-0.0048,-0.0034,-0.0044,-0.0044,-0.0045,-0.0045,-0.0045,0,0.0576,0.0543,0.0504,0.0447,0.0414,0.0392,0.0345,0.0319,0.0279,0.0236,0.0197,0.0146,0.0101,0.0051,0.0003,-0.0016,-0.003,-0.0027,-0.0026,-0.0033,-0.0038,-0.003,-0.0015,-0.0015,-0.0015,-0.0015,-0.0015,-0.0015,0.0574,0.0534,0.0507,0.0449,0.0415,0.0371,0.0346,0.0311,0.0277,0.0221,0.0184,0.0152,0.0106,0.0055,0.0013,-0.0,-0.0016,-0.0009,-0.0026,-0.003,-0.0033,-0.0035,-0.0027,-0.0012,-0.0012,-0.0018,-0.0018,-0.0018]},{"header":{"parameterUnit":"m.s-1","parameterCategory":1,"la1":30.2991,"la2":30.254,"lo1":-89.0895,"lo2":-89.0444,"dy":0.0017,"dx":0.0017,"nx":28,"ny":28,"refTime":"2024-02-11T03:00:00:Z","depth":0,"parameterNumber":3,"parameterNumberName":"V-component_of_WINDS"},"data":[0,0,0,0,0,0,0,0,0,0,0,0,0,0,0,0,0,0,0,0,0,0,0,0,0,0,0,0,0,0,0,0,0,0,0,0,0,0,0,0,0,0,0,0,0,0,0,0,0,0,0,0,0,0,0,0,0,0,4.224,4.2241,0,4.2363,4.2364,4.2366,4.2381,4.238,4.2379,4.2378,4.2503,4.2507,4.2511,0,0,0,0,0,0,0,0,0,0,0,0,0,4.2017,4.2021,4.2239,4.2241,4.2243,4.2362,4.2364,4.2366,4.2382,4.238,4.2379,4.2377,4.2501,4.2506,4.2512,0,0,0,0,0,0,0,0,0,0,0,0,0,4.2124,4.2022,4.2239,4.2265,4.2268,4.2362,4.2364,4.2366,4.2382,4.238,4.2378,4.2377,4.25,4.2506,4.2513,4.2589,0,0,4.2533,4.2536,0,0,0,0,0,0,0,0,4.2118,4.2132,4.226,4.2263,4.2267,4.2355,4.2332,4.2441,4.2382,4.2339,4.2378,4.2376,4.2455,4.2465,4.2492,4.2595,4.26,4.2533,4.2537,4.254,4.2542,0,0,0,0,0,0,0,4.2111,4.2127,4.2288,4.2261,4.2266,4.227,4.2283,4.2352,4.2405,4.2342,4.2344,4.2358,4.2457,4.2486,4.2495,4.2602,4.2533,4.2539,4.2543,4.2546,4.2775,4.2777,0,0,0,0,0,0,4.2099,4.2121,4.2284,4.2292,4.2187,4.2275,4.229,4.2329,4.2404,4.2414,4.236,4.2359,4.2475,4.2487,4.2499,4.2596,4.254,4.2546,4.255,4.2773,4.2775,4.2778,0,0,0,0,0,0,4.2094,4.2113,4.2279,4.2207,4.2228,4.2281,4.2324,4.2332,4.2361,4.2418,4.2427,4.238,4.2474,4.249,4.2567,4.26,4.2549,4.2555,4.277,4.2774,4.2777,4.2787,0,0,0,0,0,0,4.2087,4.2111,4.2141,4.2207,4.2232,4.2345,4.2326,4.2336,4.2373,4.2372,4.2439,4.2448,4.2474,4.2557,4.2574,4.2608,4.2561,4.2768,4.2772,4.2776,4.2784,4.279,4.2796,0,0,0,0,0,4.2079,4.2138,4.2142,4.2162,4.227,4.2347,4.2361,4.239,4.2375,4.2406,4.2442,4.2446,4.2593,4.2565,4.2584,4.2621,4.2766,4.2771,4.2775,4.2782,4.2789,4.2795,0,0,0,0,0,0,4.2074,4.2147,4.2153,4.2235,4.2285,4.2349,4.2389,4.2397,4.2451,4.2449,4.2482,4.2497,4.2573,4.2604,4.2571,4.2699,4.2678,4.2687,4.2677,4.2684,4.269,4.2682,4.2566,0,0,0,0,0,4.2082,4.2138,4.2199,4.2266,4.2291,4.2335,4.237,4.2388,4.2441,4.2461,4.2503,4.2554,4.2612,4.2649,4.2706,4.2788,4.2804,4.2823,4.2829,4.2833,4.2841,4.2889,4.2898,4.2793,4.2793,4.2793,0,0,4.21,4.2147,4.2181,4.2266,4.2307,4.2365,4.2353,4.2414,4.2458,4.2471,4.2547,4.2579,4.2638,4.2718,4.2756,4.2747,4.2873,4.2839,4.2842,4.2848,4.2895,4.2904,4.2913,4.2797,4.2796,4.2795,0,0,4.2163,4.2203,4.2264,4.2305,4.2367,4.2397,4.2411,4.2475,4.2498,4.2574,4.2586,4.2637,4.2736,4.2778,4.2812,4.2891,4.2897,4.2908,4.2939,4.2985,4.2993,4.3001,4.3031,4.3041,4.2915,4.2915,4.2915,0,4.2177,4.2265,4.2294,4.2356,4.2394,4.2409,4.2471,4.2509,4.2586,4.2612,4.26,4.2726,4.2766,4.2858,4.2877,4.2903,4.2922,4.2902,4.299,4.2998,4.3005,4.3034,4.3045,4.2916,4.2916,4.2916,4.2916,0,4.2281,4.2341,4.2383,4.2458,4.25,4.2562,4.2601,4.264,4.2654,4.2685,4.2763,4.2812,4.2879,4.2902,4.2916,4.2996,4.2989,4.2983,4.2963,4.3016,4.3044,4.3055,4.2918,4.2917,4.2917,4.2917,0,0,4.2344,4.2435,4.245,4.2485,4.2555,4.2602,4.2664,4.2731,4.2764,4.2816,4.287,4.2954,4.295,4.2988,4.3007,4.3047,4.3109,4.3037,4.3039,4.3051,4.3203,4.3208,4.322,4.3113,4.3115,4.3117,4.3198,0,4.2416,4.2529,4.2558,4.2653,4.2711,4.2726,4.278,4.2828,4.2858,4.2911,4.2944,4.3004,4.2992,4.3016,4.3056,4.3093,4.3141,4.3087,4.3165,4.3167,4.3152,4.3235,4.3241,4.3315,4.3209,4.3211,4.3212,0,4.2516,4.2572,4.2674,4.2737,4.2762,4.2811,4.2875,4.2925,4.298,4.2999,4.3043,4.3058,4.3124,4.3099,4.319,4.3154,4.3187,4.3209,4.3213,4.3223,4.3195,4.3249,4.3339,4.3351,4.323,4.3228,4.3227,0,4.2555,4.2655,4.273,4.2759,4.2834,4.2868,4.2901,4.2955,4.2993,4.3048,4.3074,4.3136,4.317,4.3218,4.325,4.3228,4.3339,4.3316,4.3358,4.3358,4.3383,4.3381,4.3482,4.34,4.34,4.34,4.3399,0,4.2635,4.2697,4.2749,4.2795,4.2865,4.2897,4.2966,4.2999,4.3046,4.3099,4.3115,4.3164,4.3202,4.3256,4.3281,4.3354,4.3369,4.3387,4.3393,4.3387,4.3385,4.3411,4.3407,4.3403,4.3402,4.3401,4.3401,0,4.2691,4.2728,4.2811,4.2875,4.2893,4.2942,4.2997,4.3043,4.3073,4.314,4.3157,4.3205,4.327,4.3306,4.3387,4.3403,4.3486,4.3488,4.3468,4.3471,4.3512,4.3508,4.3634,4.3653,4.3557,4.3558,4.3558,0,4.274,4.2789,4.2859,4.2896,4.293,4.2988,4.3028,4.3061,4.3102,4.3169,4.3206,4.3272,4.3327,4.343,4.3472,4.3535,4.354,4.358,4.355,4.3543,4.3544,4.3542,4.3547,4.3586,4.3587,4.3588,4.3588,0,4.2825,4.2841,4.2898,4.2962,4.3009,4.306,4.3111,4.3141,4.3182,4.3227,4.3294,4.3336,4.342,4.3486,4.3552,4.3585,4.3595,4.3597,4.3611,4.3606,4.3593,4.3603,4.3485,4.3595,4.3594,4.3593,4.3593,4.3593,4.2881,4.2925,4.2982,4.3045,4.3087,4.3135,4.3181,4.3218,4.3274,4.3346,4.3361,4.3432,4.3487,4.3577,4.3612,4.3669,4.3661,4.368,4.3685,4.369,4.3693,4.3582,4.368,4.368,4.368,4.368,4.368,0,4.2968,4.3006,4.3063,4.3135,4.3185,4.3188,4.3245,4.3287,4.335,4.34,4.3454,4.3532,4.3596,4.3643,4.3708,4.3745,4.375,4.3761,4.376,4.3768,4.3695,4.3678,4.3755,4.3755,4.3755,4.3755,4.3755,4.3755,4.302,4.3096,4.3119,4.3216,4.3253,4.3323,4.3356,4.34,4.3441,4.3527,4.3581,4.3611,4.3661,4.373,4.3789,4.3801,4.3826,4.3836,4.3849,4.378,4.3773,4.3765,4.3749,4.3841,4.3841,4.3918,4.3918,4.3919]}]]